Probability
26 26 35 26 26 32 32 26 29 29 32 26 26 26 19 19 16 13 10 35 58 71 77 84 77 81 84 84 74 71 68 61 52 45 52 48 42 39 35 35 23 19 16
23 16 13 13 19 23 26 26 26 26 23 23 23 29 19 13 6 3 6 13 45 58 68 74 74 81 77 84 77 68 68 65 55 48 42 39 39 35 32 26 23 23 16
13 13 13 10 13 10 13 13 16 10 13 16 16 16 16 13 10 6 6 6 13 35 48 68 65 65 65 71 68 65 65 61 55 48 42 39 26 19 16 16 16 13 10
3 10 13 13 6 6 6 13 13 10 10 13 13 6 6 6 10 10 10 6 6 6 29 45 58 58 58 58 52 58 58 55 45 45 39 35 23 16 13 13 10 6 0
3 3 6 6 6 0 3 6 10 10 6 6 3 6 3 3 6 6 3 3 3 3 3 16 32 35 42 45 42 45 48 39 32 32 32 26 16 10 6 3 3 3 3
10 6 6 6 6 3 0 0 3 3 3 3 3 3 0 0 3 3 3 3 3 3 0 0 10 23 26 29 29 29 32 32 26 19 26 19 10 3 3 3 3 3 3
3 6 6 6 3 3 3 3 0 0 0 3 3 3 0 0 0 0 3 3 3 3 3 3 3 6 6 19 19 23 19 19 13 10 16 13 10 3 3 3 0 0 0
3 6 6 3 3 0 0 0 0 0 0 0 3 3 3 0 0 0 0 0 3 3 3 0 0 0 0 0 0 6 10 10 10 13 10 10 10 3 3 3 3 3 3
6 6 10 6 6 3 3 0 0 3 0 0 0 3 3 3 0 0 0 0 0 0 0 0 0 0 0 0 0 0 6 10 10 6 10 6 0 0 0 3 3 3 3
6 6 6 6 6 6 0 0 3 3 3 0 0 0 3 3 0 0 0 0 0 0 0 0 0 0 0 0 0 0 0 3 6 6 10 6 0 0 3 0 0 0 3
6 6 6 6 3 3 0 0 0 0 0 0 0 0 0 0 0 0 0 0 0 0 0 0 0 0 0 0 0 0 0 0 0 3 6 3 3 0 0 3 3 3 0
0 0 3 3 3 3 0 0 0 0 0 0 0 0 0 0 0 0 0 0 0 0 0 0 0 0 0 0 0 0 0 0 0 0 0 0 0 0 0 0 3 3 3
0 0 0 3 3 3 3 0 0 0 0 0 0 0 0 0 0 0 0 0 0 0 0 0 0 0 0 0 0 0 0 0 0 0 0 0 0 0 0 0 0 0 0
0 0 0 0 3 3 3 3 0 0 0 0 0 0 0 0 0 0 0 0 0 0 0 0 0 0 0 0 0 0 0 0 0 0 0 0 0 0 0 0 0 0 0
0 0 0 0 0 3 3 3 3 0 0 0 0 0 0 0 0 0 0 0 0 0 0 0 0 0 0 0 0 0 0 0 0 0 0 0 0 0 0 0 0 0 0
0 0 0 0 0 0 3 3 3 3 0 0 0 0 0 0 0 0 0 0 0 0 0 0 0 0 0 0 0 0 0 0 0 0 0 0 0 0 0 0 0 0 0
0 0 0 0 0 0 3 3 3 3 0 0 0 0 0 0 0 0 0 0 0 0 0 0 0 0 0 0 0 0 0 0 0 0 0 0 0 0 0 0 0 0 0
0 0 0 0 0 0 0 3 3 0 0 0 0 0 0 0 0 0 0 0 0 0 0 0 0 0 0 0 0 0 0 0 0 0 0 0 0 0 0 0 0 0 0
0 0 0 0 0 0 0 3 0 0 0 0 0 0 0 0 0 0 0 0 0 0 0 0 0 0 0 0 0 0 0 0 0 0 0 0 0 0 0 0 0 0 0
0 0 0 0 0 0 0 0 0 0 0 0 0 0 0 0 0 0 0 0 0 0 0 0 0 0 0 0 0 0 0 0 0 0 0 0 0 0 0 0 0 0 0
0 0 0 0 0 0 0 0 0 0 0 0 0 0 0 0 0 0 0 0 0 0 0 0 0 0 0 0 0 0 0 0 0 0 0 0 0 0 0 0 0 0 0
0 0 0 0 0 0 0 0 0 0 0 0 0 0 0 0 0 0 0 0 0 0 0 0 0 0 0 0 0 0 0 0 0 0 0 0 0 0 0 0 0 0 0
0 0 0 0 0 0 0 0 0 0 0 0 0 0 0 0 0 0 0 0 0 0 0 0 0 0 0 0 0 0 0 0 0 0 0 0 0 0 0 0 0 0 0
0 0 0 0 0 0 0 0 0 0 0 0 0 0 0 0 0 0 0 0 0 0 0 0 0 0 0 0 0 0 0 0 0 0 0 0 0 0 0 0 0 0 0
0 0 0 0 0 0 0 0 0 0 0 0 0 0 0 0 0 0 0 0 0 0 0 0 0 0 0 0 0 0 0 0 0 0 0 0 0 0 0 0 0 0 0
0 0 0 0 0 0 0 0 0 0 0 0 0 0 0 0 0 0 0 0 0 0 0 0 0 0 0 0 0 0 0 0 0 0 0 0 0 0 0 0 0 0 0
Height
5868 5868 5869 5869 5869 5870 5870 5870 5870 5870 5870 5871 5871 5871 5872 5872 5872 5873 5874 5875 5875 5876 5876 5877 5877 5878 5879 5880 5881 5882 5883 5884 5886 5887 5887 5888 5889 5889 5890 5890 5891 5891 5892
5863 5864 5864 5864 5864 5865 5865 5865 5865 5865 5865 5866 5866 5866 5867 5867 5868 5868 5869 5869 5870 5871 5871 5872 5873 5874 5874 5876 5877 5878 5879 5880 5881 5882 5883 5884 5885 5885 5886 5886 5887 5887 5888
5858 5858 5858 5858 5859 5859 5859 5860 5860 5860 5860 5860 5861 5861 5862 5862 5863 5863 5864 5864 5865 5866 5866 5867 5868 5869 5870 5871 5872 5873 5874 5875 5877 5878 5878 5879 5880 5881 5881 5882 5882 5883 5883
5852 5852 5852 5853 5853 5853 5854 5854 5854 5854 5854 5854 5855 5856 5856 5857 5857 5858 5858 5859 5860 5861 5861 5862 5862 5864 5865 5866 5867 5868 5869 5870 5871 5872 5873 5874 5875 5876 5876 5877 5877 5878 5878
5847 5847 5847 5847 5847 5847 5847 5848 5848 5848 5848 5848 5849 5850 5850 5851 5851 5852 5852 5853 5854 5855 5855 5856 5857 5858 5859 5860 5861 5862 5864 5865 5866 5867 5868 5868 5869 5870 5871 5871 5872 5872 5872
5842 5841 5841 5841 5841 5841 5841 5841 5841 5841 5841 5842 5842 5843 5844 5844 5845 5845 5846 5846 5847 5848 5849 5850 5851 5852 5853 5854 5855 5856 5858 5858 5859 5861 5862 5863 5863 5864 5865 5865 5865 5866 5866
5836 5835 5834 5834 5834 5834 5834 5835 5834 5834 5835 5835 5835 5836 5837 5837 5838 5839 5839 5840 5841 5841 5842 5843 5845 5846 5847 5848 5849 5850 5851 5852 5853 5854 5855 5856 5857 5857 5858 5858 5859 5859 5859
5829 5828 5828 5828 5827 5827 5827 5827 5827 5827 5827 5827 5828 5828 5829 5830 5831 5831 5832 5833 5833 5834 5835 5836 5838 5839 5840 5842 5843 5844 5845 5846 5847 5847 5848 5849 5850 5850 5851 5851 5852 5852 5852
5822 5821 5821 5820 5820 5820 5819 5819 5819 5819 5820 5820 5820 5820 5821 5822 5823 5824 5824 5825 5826 5827 5828 5829 5830 5832 5833 5835 5836 5837 5838 5839 5840 5840 5841 5841 5842 5843 5843 5844 5844 5844 5844
5815 5814 5813 5813 5812 5812 5811 5811 5812 5812 5812 5812 5812 5812 5813 5814 5815 5816 5817 5818 5819 5820 5821 5822 5823 5824 5825 5827 5828 5830 5831 5832 5833 5833 5834 5834 5835 5835 5835 5835 5836 5836 5836
5807 5806 5805 5804 5804 5804 5803 5803 5803 5804 5804 5804 5804 5805 5806 5806 5807 5809 5810 5811 5811 5812 5813 5814 5815 5816 5818 5819 5821 5822 5823 5825 5825 5826 5826 5827 5827 5827 5827 5827 5827 5827 5827
5799 5798 5797 5796 5796 5796 5795 5795 5795 5795 5796 5796 5797 5797 5798 5799 5800 5801 5802 5803 5804 5805 5806 5807 5808 5809 5810 5811 5813 5814 5816 5817 5817 5818 5818 5818 5819 5819 5819 5819 5819 5819 5819
5791 5790 5789 5788 5788 5788 5787 5787 5787 5787 5787 5788 5788 5789 5789 5791 5792 5793 5794 5795 5797 5798 5798 5800 5801 5802 5803 5804 5805 5806 5807 5809 5809 5810 5810 5810 5810 5810 5810 5810 5810 5810 5810
5783 5782 5781 5780 5780 5779 5779 5779 5779 5779 5779 5779 5780 5780 5781 5782 5784 5785 5787 5788 5789 5790 5791 5793 5793 5795 5796 5797 5798 5799 5800 5801 5801 5802 5802 5802 5802 5802 5802 5802 5802 5801 5801
5774 5773 5772 5771 5771 5771 5770 5770 5770 5770 5770 5771 5771 5772 5773 5774 5776 5777 5779 5780 5782 5783 5784 5785 5786 5787 5788 5789 5790 5791 5792 5792 5793 5794 5794 5794 5794 5794 5794 5794 5793 5792 5792
5765 5764 5763 5763 5763 5762 5762 5762 5762 5762 5762 5763 5763 5764 5765 5766 5767 5769 5771 5772 5774 5775 5777 5778 5779 5780 5781 5782 5783 5783 5784 5784 5785 5785 5786 5786 5786 5785 5785 5785 5784 5783 5783
5758 5757 5756 5755 5755 5754 5754 5754 5754 5754 5754 5755 5755 5756 5757 5758 5759 5761 5763 5764 5766 5768 5769 5771 5772 5773 5774 5775 5775 5776 5776 5777 5777 5777 5777 5777 5777 5777 5777 5776 5775 5775 5774
5751 5750 5749 5748 5747 5747 5746 5746 5746 5746 5746 5747 5747 5748 5749 5750 5752 5753 5755 5757 5759 5760 5762 5763 5764 5765 5766 5767 5767 5768 5769 5769 5770 5769 5769 5769 5769 5769 5768 5768 5767 5766 5765
5745 5743 5742 5741 5740 5739 5739 5739 5739 5739 5739 5740 5740 5741 5742 5743 5745 5746 5748 5750 5751 5753 5755 5756 5757 5758 5759 5760 5760 5761 5761 5762 5762 5762 5762 5762 5761 5761 5760 5759 5758 5757 5756
5739 5738 5736 5735 5734 5733 5732 5732 5732 5732 5732 5733 5734 5735 5736 5737 5738 5740 5742 5743 5745 5746 5748 5749 5750 5751 5752 5753 5753 5754 5754 5755 5755 5755 5755 5755 5754 5753 5752 5751 5750 5749 5748
5734 5732 5731 5729 5728 5727 5726 5725 5725 5726 5726 5727 5728 5729 5730 5731 5732 5734 5736 5737 5738 5740 5741 5742 5744 5745 5746 5746 5747 5747 5748 5748 5748 5748 5748 5748 5747 5746 5745 5744 5742 5741 5740
5730 5728 5726 5725 5723 5722 5721 5720 5720 5720 5721 5722 5723 5724 5725 5726 5727 5729 5730 5731 5733 5734 5735 5736 5738 5739 5739 5740 5741 5741 5742 5742 5742 5742 5741 5741 5740 5739 5738 5737 5736 5734 5733
5727 5725 5723 5722 5720 5719 5717 5716 5716 5716 5716 5717 5718 5720 5721 5722 5723 5724 5726 5727 5728 5729 5730 5731 5732 5733 5734 5735 5735 5736 5736 5736 5736 5735 5735 5734 5733 5733 5732 5731 5730 5728 5727
5724 5723 5721 5719 5718 5716 5715 5714 5713 5713 5714 5715 5716 5717 5718 5719 5720 5721 5722 5723 5724 5725 5726 5727 5728 5729 5730 5730 5731 5731 5731 5731 5731 5730 5729 5729 5728 5728 5727 5725 5724 5722 5721
5722 5721 5719 5717 5716 5714 5713 5713 5712 5712 5713 5713 5714 5715 5716 5717 5718 5719 5720 5721 5721 5722 5722 5723 5724 5725 5726 5726 5727 5727 5727 5727 5726 5726 5726 5725 5724 5723 5722 5720 5719 5717 5715
5721 5720 5718 5716 5715 5714 5713 5712 5712 5712 5713 5713 5713 5714 5715 5716 5717 5718 5719 5719 5719 5720 5721 5721 5722 5723 5723 5723 5723 5724 5724 5723 5723 5723 5722 5721 5720 5719 5718 5716 5714 5712 5711
Wind_Speed
21 22 23 24 23 23 23 23 23 22 22 21 21 21 22 21 21 22 22 21 22 22 21 21 20 19 19 19 19 19 18 18 18 18 18 17 17 17 16 16 16 16 16
23 23 22 23 24 24 24 24 24 24 24 24 23 22 22 22 22 23 23 23 23 23 22 22 22 21 20 20 20 20 20 20 20 19 19 19 19 19 18 18 18 18 18
22 23 23 24 25 24 25 25 24 24 25 25 25 23 22 22 23 23 24 24 24 23 24 24 23 23 22 22 22 22 22 22 22 21 21 21 21 21 21 21 21 20 20
22 23 23 24 25 25 25 25 25 25 26 25 24 24 23 23 23 23 24 25 25 24 24 24 24 24 24 23 23 23 23 23 23 23 23 23 23 23 23 23 23 23 23
21 22 23 24 25 25 25 25 26 26 27 26 25 25 26 25 24 24 24 25 26 26 26 26 26 25 24 24 24 24 24 25 25 24 24 24 24 25 25 25 26 25 25
22 23 24 24 25 25 26 27 27 27 28 28 28 27 27 27 27 26 26 26 26 27 28 28 27 26 26 26 26 26 26 26 26 26 26 26 26 27 27 27 27 28 28
23 25 25 25 26 26 26 27 27 27 27 28 28 29 29 29 29 28 27 27 27 28 28 28 28 28 28 28 27 28 28 27 27 27 27 27 27 28 29 29 30 30 30
24 26 26 27 27 28 27 27 27 28 29 29 29 29 29 29 29 29 27 27 28 27 28 29 29 30 29 28 29 29 29 29 29 30 29 29 30 30 30 30 31 32 33
26 27 27 28 28 28 28 28 28 29 29 29 30 30 30 29 30 29 28 28 28 28 29 30 30 31 30 30 29 30 30 30 30 31 31 31 32 32 32 32 33 33 33
27 28 29 29 29 29 29 29 29 29 29 29 29 29 29 28 29 28 28 28 28 27 28 29 31 31 31 31 31 30 30 31 31 31 32 33 33 33 34 34 34 35 36
27 27 28 28 28 29 29 29 29 29 29 29 29 29 29 29 28 27 28 28 28 28 28 28 29 30 31 32 32 32 31 32 32 33 34 34 34 33 35 36 37 36 37
27 27 28 28 28 29 29 29 29 30 29 29 29 29 30 30 29 28 28 28 28 29 28 28 28 28 30 32 32 32 33 34 33 35 35 35 35 35 35 36 37 37 37
29 29 29 29 29 28 28 29 29 29 29 29 30 30 30 30 30 30 29 29 29 29 29 29 28 28 30 31 32 32 33 34 33 34 35 35 36 35 35 37 37 37 37
30 30 29 30 29 29 29 29 29 29 29 29 30 30 30 30 30 30 30 30 30 29 29 28 28 28 29 30 30 30 31 33 33 34 35 36 36 36 36 36 37 38 38
29 29 28 28 28 29 29 29 29 29 28 29 29 29 30 30 30 30 30 30 30 29 28 28 28 28 29 29 30 30 31 32 33 34 35 36 36 36 36 36 37 37 38
28 28 27 27 28 28 28 28 28 28 28 29 29 30 30 30 29 29 29 29 29 29 28 28 28 29 29 29 30 31 33 33 33 35 35 35 35 36 36 36 36 36 37
24 24 25 26 27 27 27 27 28 28 28 28 29 29 28 28 29 29 29 29 29 28 28 28 28 29 30 30 30 30 32 32 32 33 34 34 34 35 35 36 36 36 37
22 22 23 24 25 25 26 27 27 27 26 26 26 26 27 27 27 27 28 27 28 28 28 27 28 28 29 29 30 30 30 30 31 32 32 32 32 32 33 34 34 35 35
21 21 22 22 23 23 24 24 25 25 25 25 25 25 25 26 26 26 26 26 26 27 27 27 28 28 28 29 29 28 28 28 28 29 29 30 30 31 32 33 33 32 33
19 19 20 20 21 21 22 22 23 23 23 22 22 23 23 23 23 24 24 24 24 25 26 26 27 27 27 27 28 27 26 26 26 27 28 29 30 31 32 32 32 32 32
17 18 18 18 19 20 20 20 20 21 21 20 20 20 20 20 20 21 21 22 22 23 24 25 25 25 25 25 25 25 26 26 26 27 28 28 29 30 30 30 30 30 30
16 16 15 15 16 16 16 17 17 17 17 17 17 17 17 17 17 17 18 18 19 19 20 21 21 22 23 22 23 23 24 25 25 26 26 26 27 27 26 26 27 27 27
14 13 13 13 14 13 13 12 12 12 13 13 13 13 13 13 14 14 15 15 15 16 17 18 18 18 19 20 20 21 21 21 22 23 23 24 24 23 23 23 23 24 25
12 11 11 11 10 10 9 10 9 9 9 9 9 9 9 10 11 11 11 11 12 12 13 14 14 15 15 16 16 17 17 18 19 19 19 19 19 19 20 21 22 23 23
11 10 9 8 7 7 7 6 5 5 5 6 6 6 6 6 6 7 7 8 9 8 8 10 11 11 12 12 14 14 14 14 15 15 15 16 16 18 18 19 20 20 21
9 8 7 6 5 5 4 4 3 3 3 3 3 3 3 2 2 3 4 4 5 5 6 7 8 9 10 10 11 11 12 12 12 13 14 14 15 16 17 18 18 18 18
Wind_Direction
269 268 268 269 270 270 272 273 274 272 272 273 271 269 270 269 266 264 264 263 261 258 257 257 257 258 257 254 252 252 253 252 254 257 258 258 258 257 255 255 256 259 261
267 268 268 269 270 271 272 274 273 269 271 272 271 268 267 267 267 267 268 264 260 258 258 257 256 258 255 253 254 252 253 253 255 257 259 259 260 260 257 257 258 260 262
268 268 269 269 270 271 271 272 271 270 271 272 271 269 267 267 266 266 267 265 260 259 258 258 257 257 256 255 255 254 254 255 257 259 259 260 260 260 258 259 259 261 263
271 269 269 269 268 268 269 269 269 270 270 272 270 268 268 267 267 266 265 263 261 258 257 257 257 256 256 255 253 254 255 256 258 259 260 260 260 259 258 259 259 261 263
274 272 270 268 267 267 267 266 268 267 267 268 268 267 268 268 268 267 265 260 259 258 255 255 256 256 254 253 253 254 254 254 256 259 261 261 260 259 259 259 260 262 264
274 272 271 270 268 267 268 267 268 267 267 267 266 265 266 267 267 266 263 260 258 256 254 253 254 253 253 253 252 252 253 255 257 259 260 261 261 260 260 261 262 263 264
274 272 271 270 269 268 268 269 269 267 267 266 265 264 264 265 264 263 263 260 257 257 255 252 252 252 251 251 251 252 253 255 258 259 260 260 260 260 260 261 261 262 264
273 272 271 269 269 269 267 267 267 267 267 266 265 264 263 265 263 262 261 259 257 256 253 251 251 252 252 251 252 253 255 255 256 257 256 259 261 259 261 261 262 262 264
273 273 272 270 269 269 269 268 268 268 267 266 266 265 264 264 262 261 261 260 258 257 255 251 251 252 251 251 252 252 252 254 255 255 256 258 259 259 261 262 263 264 265
273 272 272 271 271 270 270 270 270 270 268 266 266 265 264 264 261 260 261 261 259 257 257 254 252 253 251 251 251 252 252 253 256 255 257 257 259 260 260 262 263 265 268
274 273 273 273 272 271 270 271 270 270 267 267 266 264 263 261 259 258 259 260 260 259 258 256 254 253 251 252 252 252 252 253 254 254 256 257 259 261 262 263 265 267 268
274 274 274 273 273 271 270 271 270 270 268 267 266 265 263 261 259 258 258 258 259 258 258 258 257 257 254 251 251 251 252 253 254 255 256 257 260 262 262 263 265 267 269
275 275 274 274 274 272 271 271 270 269 268 267 266 264 263 262 261 259 258 258 259 260 258 256 256 257 255 252 251 253 253 253 255 255 255 259 259 260 263 265 266 267 268
275 274 274 273 273 272 271 270 269 269 267 266 265 263 262 262 261 260 259 259 259 259 257 256 256 256 256 253 252 254 254 253 254 255 258 260 261 262 264 264 266 267 268
275 276 273 273 273 273 271 270 269 269 267 266 265 265 263 261 260 259 259 259 259 258 256 255 255 256 256 254 254 255 256 257 255 256 261 262 264 264 264 266 269 269 271
277 278 275 274 273 273 273 271 270 268 266 265 264 263 263 261 259 258 258 258 258 258 258 257 255 256 257 257 258 257 258 258 258 260 262 263 264 264 265 267 271 271 272
280 280 278 277 275 274 273 272 270 268 267 266 263 261 261 259 259 258 258 257 258 258 258 257 257 258 258 258 258 260 260 260 263 264 264 264 265 265 266 268 271 274 273
285 284 282 280 278 277 275 273 271 269 268 267 264 262 261 260 258 258 257 256 256 257 257 256 256 258 261 261 260 261 262 264 265 265 265 266 267 268 268 269 271 273 273
289 288 286 283 281 279 277 275 272 270 269 267 265 264 263 262 259 258 257 257 257 256 257 257 257 258 261 263 263 265 265 264 265 265 267 269 269 270 271 271 274 274 274
293 292 290 287 286 284 279 277 275 272 270 268 264 264 264 263 261 258 257 258 258 257 257 257 257 259 261 262 263 265 266 267 267 267 268 270 272 273 272 273 275 277 278
299 298 296 293 291 288 284 280 276 271 270 269 266 264 264 262 262 259 258 259 259 258 257 256 257 260 261 262 264 264 265 267 269 270 271 272 274 275 274 276 278 280 282
305 303 300 299 296 293 291 283 278 274 270 267 265 263 262 261 261 259 257 258 259 258 257 258 258 260 261 262 264 265 267 269 271 272 274 277 278 279 277 279 282 282 284
309 307 304 305 305 304 300 297 288 279 272 268 265 261 259 258 257 257 255 256 257 257 256 258 259 259 261 263 265 268 271 273 273 277 278 279 281 285 284 284 285 286 287
316 316 315 313 312 311 307 304 300 288 277 270 266 262 260 259 256 254 252 256 257 258 257 257 256 258 261 265 266 269 271 274 278 282 284 285 287 289 289 289 289 291 292
320 319 320 321 321 322 323 319 314 302 289 279 275 269 266 257 251 249 252 260 260 261 261 254 257 262 268 271 272 273 276 280 282 283 285 289 291 293 294 295 296 295 295
334 335 336 337 339 344 350 348 336 332 320 306 289 270 252 242 251 263 269 270 268 267 266 263 268 273 274 277 280 281 282 283 286 289 293 296 296 297 298 300 301 301 301